Time,TemperatureF,DewpointF,PressureIn,WindDirection,WindDirectionDegrees,WindSpeedMPH,WindSpeedGustMPH,Humidity,HourlyPrecipIn,Conditions,Clouds,dailyrainin,SoftwareType,DateUTC
2013-06-07 00:00:00,60.2,55.0,29.91,WNW,292,2.0,2.0,83,0.00,,,0.00,Wunderground v.1.15,2013-06-07 07:00:00,
2013-06-07 00:10:00,60.2,54.7,29.91,NW,318,3.0,6.0,82,0.00,,,0.00,Wunderground v.1.15,2013-06-07 07:10:00,
2013-06-07 00:20:00,60.2,54.7,29.91,NW,318,3.0,6.0,82,0.00,,,0.00,Wunderground v.1.15,2013-06-07 07:20:00,
2013-06-07 00:30:00,60.1,54.9,29.91,NW,319,2.0,2.0,83,0.00,,,0.00,Wunderground v.1.15,2013-06-07 07:30:00,
2013-06-07 00:40:00,59.9,54.7,29.91,NW,318,1.0,1.0,83,0.00,,,0.00,Wunderground v.1.15,2013-06-07 07:40:00,
2013-06-07 00:50:00,59.9,54.7,29.91,West,261,4.0,4.0,83,0.00,,,0.00,Wunderground v.1.15,2013-06-07 07:50:00,
2013-06-07 01:00:00,59.9,54.7,29.91,WNW,285,2.0,8.0,83,0.00,,,0.00,Wunderground v.1.15,2013-06-07 08:00:00,
2013-06-07 01:10:00,59.8,54.6,29.91,West,280,3.0,3.0,83,0.00,,,0.00,Wunderground v.1.15,2013-06-07 08:10:00,
2013-06-07 01:20:00,59.6,54.8,29.90,West,280,2.0,7.0,84,0.00,,,0.00,Wunderground v.1.15,2013-06-07 08:20:00,
2013-06-07 01:30:00,59.5,54.7,29.90,West,280,3.0,5.0,84,0.00,,,0.00,Wunderground v.1.15,2013-06-07 08:30:00,
2013-06-07 01:40:00,59.5,54.7,29.90,West,280,3.0,6.0,84,0.00,,,0.00,Wunderground v.1.15,2013-06-07 08:40:00,
2013-06-07 01:50:00,59.3,54.5,29.89,West,280,2.0,5.0,84,0.00,,,0.00,Wunderground v.1.15,2013-06-07 08:50:00,
2013-06-07 02:00:00,59.3,54.8,29.89,West,280,1.0,1.0,85,0.00,,,0.00,Wunderground v.1.15,2013-06-07 09:00:00,
2013-06-07 02:10:00,59.3,54.5,29.89,West,263,3.0,4.0,84,0.00,,,0.00,Wunderground v.1.15,2013-06-07 09:10:00,
2013-06-07 02:20:00,59.2,54.7,29.88,West,263,2.0,6.0,85,0.00,,,0.00,Wunderground v.1.15,2013-06-07 09:20:00,
2013-06-07 02:30:00,59.0,54.5,29.88,West,263,3.0,5.0,85,0.00,,,0.00,Wunderground v.1.15,2013-06-07 09:30:00,
2013-06-07 02:40:00,59.0,54.5,29.88,West,263,2.0,2.0,85,0.00,,,0.00,Wunderground v.1.15,2013-06-07 09:40:00,
2013-06-07 02:50:00,59.0,54.5,29.88,West,263,1.0,1.0,85,0.00,,,0.00,Wunderground v.1.15,2013-06-07 09:50:00,
2013-06-07 03:00:00,59.2,54.7,29.88,West,263,2.0,4.0,85,0.00,,,0.00,Wunderground v.1.15,2013-06-07 10:00:00,
2013-06-07 03:10:00,59.2,54.7,29.88,West,263,1.0,4.0,85,0.00,,,0.00,Wunderground v.1.15,2013-06-07 10:10:00,
2013-06-07 03:20:00,59.0,54.5,29.88,West,263,1.0,1.0,85,0.00,,,0.00,Wunderground v.1.15,2013-06-07 10:20:00,
2013-06-07 03:30:00,59.0,54.5,29.88,West,263,1.0,5.0,85,0.00,,,0.00,Wunderground v.1.15,2013-06-07 10:30:00,
2013-06-07 03:40:00,59.0,54.8,29.88,West,263,0.0,4.0,86,0.00,,,0.00,Wunderground v.1.15,2013-06-07 10:40:00,
2013-06-07 03:50:00,59.0,54.8,29.87,West,263,1.0,1.0,86,0.00,,,0.00,Wunderground v.1.15,2013-06-07 10:50:00,
2013-06-07 04:00:00,58.9,54.7,29.87,West,263,1.0,4.0,86,0.00,,,0.00,Wunderground v.1.15,2013-06-07 11:00:00,
2013-06-07 04:10:00,58.9,54.7,29.87,West,263,1.0,1.0,86,0.00,,,0.00,Wunderground v.1.15,2013-06-07 11:10:00,
2013-06-07 04:20:00,58.9,54.7,29.86,West,263,0.0,3.0,86,0.00,,,0.00,Wunderground v.1.15,2013-06-07 11:20:00,
2013-06-07 04:30:00,59.0,54.8,29.86,West,263,1.0,1.0,86,0.00,,,0.00,Wunderground v.1.15,2013-06-07 11:30:00,
2013-06-07 04:40:00,58.9,54.7,29.86,West,263,1.0,4.0,86,0.00,,,0.00,Wunderground v.1.15,2013-06-07 11:40:00,
2013-06-07 04:50:00,58.7,54.5,29.86,West,263,2.0,6.0,86,0.00,,,0.00,Wunderground v.1.15,2013-06-07 11:50:00,
2013-06-07 05:00:00,58.7,54.5,29.86,West,262,3.0,4.0,86,0.00,,,0.00,Wunderground v.1.15,2013-06-07 12:00:00,
2013-06-07 05:10:00,58.7,54.5,29.86,West,262,2.0,5.0,86,0.00,,,0.00,Wunderground v.1.15,2013-06-07 12:10:00,
2013-06-07 05:20:00,58.7,54.5,29.86,West,262,2.0,4.0,86,0.00,,,0.00,Wunderground v.1.15,2013-06-07 12:20:00,
2013-06-07 05:30:00,58.7,54.5,29.86,West,262,2.0,5.0,86,0.00,,,0.00,Wunderground v.1.15,2013-06-07 12:30:00,
2013-06-07 05:40:00,58.7,54.5,29.86,West,262,1.0,4.0,86,0.00,,,0.00,Wunderground v.1.15,2013-06-07 12:40:00,
2013-06-07 05:50:00,58.7,54.8,29.86,West,262,3.0,3.0,87,0.00,,,0.00,Wunderground v.1.15,2013-06-07 12:50:00,
2013-06-07 06:00:00,58.7,54.8,29.87,West,264,2.0,2.0,87,0.00,,,0.00,Wunderground v.1.15,2013-06-07 13:00:00,
2013-06-07 06:10:00,58.7,54.8,29.87,West,264,2.0,2.0,87,0.00,,,0.00,Wunderground v.1.15,2013-06-07 13:10:00,
2013-06-07 06:20:00,58.7,54.8,29.87,West,264,2.0,5.0,87,0.00,,,0.00,Wunderground v.1.15,2013-06-07 13:20:00,
2013-06-07 06:30:00,58.7,54.8,29.87,West,264,2.0,5.0,87,0.00,,,0.00,Wunderground v.1.15,2013-06-07 13:30:00,
2013-06-07 06:40:00,58.7,54.8,29.87,West,264,2.0,2.0,87,0.00,,,0.00,Wunderground v.1.15,2013-06-07 13:40:00,
2013-06-07 06:50:00,58.7,54.8,29.87,West,264,2.0,2.0,87,0.00,,,0.00,Wunderground v.1.15,2013-06-07 13:50:00,
2013-06-07 07:00:00,58.7,54.8,29.87,West,264,2.0,2.0,87,0.00,,,0.00,Wunderground v.1.15,2013-06-07 14:00:00,
2013-06-07 07:10:00,58.9,55.0,29.87,West,264,1.0,3.0,87,0.00,,,0.00,Wunderground v.1.15,2013-06-07 14:10:00,
2013-06-07 07:20:00,58.9,55.0,29.87,West,265,1.0,4.0,87,0.00,,,0.00,Wunderground v.1.15,2013-06-07 14:20:00,
2013-06-07 07:30:00,59.0,55.1,29.87,West,264,0.0,3.0,87,0.00,,,0.00,Wunderground v.1.15,2013-06-07 14:30:00,
2013-06-07 07:40:00,59.2,55.3,29.87,West,264,1.0,1.0,87,0.00,,,0.00,Wunderground v.1.15,2013-06-07 14:40:00,
2013-06-07 07:50:00,59.2,55.3,29.88,West,264,1.0,4.0,87,0.00,,,0.00,Wunderground v.1.15,2013-06-07 14:50:00,
2013-06-07 08:00:00,59.3,55.4,29.88,West,264,2.0,4.0,87,0.00,,,0.00,Wunderground v.1.15,2013-06-07 15:00:00,
2013-06-07 08:10:00,59.5,55.6,29.88,West,264,1.0,1.0,87,0.00,,,0.00,Wunderground v.1.15,2013-06-07 15:10:00,
2013-06-07 08:20:00,59.6,55.4,29.88,West,265,1.0,4.0,86,0.00,,,0.00,Wunderground v.1.15,2013-06-07 15:20:00,
2013-06-07 08:30:00,59.8,55.6,29.88,West,264,2.0,2.0,86,0.00,,,0.00,Wunderground v.1.15,2013-06-07 15:30:00,
2013-06-07 08:40:00,59.8,55.3,29.88,West,264,3.0,5.0,85,0.00,,,0.00,Wunderground v.1.15,2013-06-07 15:40:00,
2013-06-07 08:50:00,60.1,55.6,29.88,West,264,2.0,5.0,85,0.00,,,0.00,Wunderground v.1.15,2013-06-07 15:50:00,
2013-06-07 09:00:00,60.1,55.2,29.88,West,264,1.0,4.0,84,0.00,,,0.00,Wunderground v.1.15,2013-06-07 16:00:00,
2013-06-07 09:10:00,60.4,55.5,29.88,West,260,2.0,2.0,84,0.00,,,0.00,Wunderground v.1.15,2013-06-07 16:10:00,
2013-06-07 09:20:00,60.5,55.3,29.88,West,261,1.0,5.0,83,0.00,,,0.00,Wunderground v.1.15,2013-06-07 16:20:00,
2013-06-07 09:30:00,60.7,55.5,29.88,West,261,2.0,4.0,83,0.00,,,0.00,Wunderground v.1.15,2013-06-07 16:30:00,
2013-06-07 09:40:00,61.0,55.5,29.88,WSW,258,2.0,6.0,82,0.00,,,0.00,Wunderground v.1.15,2013-06-07 16:40:00,
2013-06-07 09:50:00,61.3,55.8,29.88,WSW,257,1.0,6.0,82,0.00,,,0.00,Wunderground v.1.15,2013-06-07 16:50:00,
2013-06-07 10:00:00,61.5,56.0,29.88,WSW,257,3.0,3.0,82,0.00,,,0.00,Wunderground v.1.15,2013-06-07 17:00:00,
2013-06-07 10:10:00,61.6,55.7,29.88,WSW,254,1.0,6.0,81,0.00,,,0.00,Wunderground v.1.15,2013-06-07 17:10:00,
2013-06-07 10:20:00,61.8,55.9,29.88,SSW,208,3.0,3.0,81,0.00,,,0.00,Wunderground v.1.15,2013-06-07 17:20:00,
2013-06-07 10:30:00,62.1,55.9,29.88,SSW,209,3.0,9.0,80,0.00,,,0.00,Wunderground v.1.15,2013-06-07 17:30:00,
2013-06-07 10:40:00,62.0,55.8,29.88,SW,233,4.0,4.0,80,0.00,,,0.00,Wunderground v.1.15,2013-06-07 17:40:00,
2013-06-07 10:50:00,62.1,55.9,29.88,SW,234,3.0,7.0,80,0.00,,,0.00,Wunderground v.1.15,2013-06-07 17:50:00,
2013-06-07 11:00:00,62.3,56.0,29.88,West,271,3.0,6.0,80,0.00,,,0.00,Wunderground v.1.15,2013-06-07 18:00:00,
2013-06-07 11:10:00,62.4,55.8,29.88,West,263,3.0,7.0,79,0.00,,,0.00,Wunderground v.1.15,2013-06-07 18:10:00,
2013-06-07 11:20:00,62.4,55.8,29.88,WSW,238,3.0,3.0,79,0.00,,,0.00,Wunderground v.1.15,2013-06-07 18:20:00,
2013-06-07 11:30:00,62.7,56.1,29.88,WSW,249,4.0,4.0,79,0.00,,,0.00,Wunderground v.1.15,2013-06-07 18:30:00,
2013-06-07 11:42:00,62.9,55.9,29.88,SSW,211,3.0,7.0,78,0.00,,,0.00,Wunderground v.1.15,2013-06-07 18:42:00,
2013-06-07 11:50:00,63.1,56.1,29.88,SW,233,5.0,8.0,78,0.00,,,0.00,Wunderground v.1.15,2013-06-07 18:50:00,
2013-06-07 12:00:00,63.7,56.4,29.88,SW,220,4.0,7.0,77,0.00,,,0.00,Wunderground v.1.15,2013-06-07 19:00:00,
2013-06-07 12:10:00,64.3,56.6,29.88,WSW,240,4.0,9.0,76,0.00,,,0.00,Wunderground v.1.15,2013-06-07 19:10:00,
2013-06-07 12:20:00,64.8,56.7,29.87,SW,228,5.0,5.0,75,0.00,,,0.00,Wunderground v.1.15,2013-06-07 19:20:00,
2013-06-07 12:30:00,65.8,56.9,29.87,WSW,238,5.0,9.0,73,0.00,,,0.00,Wunderground v.1.15,2013-06-07 19:30:00,
2013-06-07 12:40:00,66.4,56.7,29.87,WNW,288,5.0,9.0,71,0.00,,,0.00,Wunderground v.1.15,2013-06-07 19:40:00,
2013-06-07 12:50:00,66.3,56.6,29.86,SSW,193,5.0,12.0,71,0.00,,,0.00,Wunderground v.1.15,2013-06-07 19:50:00,
2013-06-07 13:00:00,66.6,57.3,29.86,SW,223,6.0,11.0,72,0.00,,,0.00,Wunderground v.1.15,2013-06-07 20:00:00,
2013-06-07 13:10:00,67.3,57.2,29.86,SW,221,6.0,12.0,70,0.00,,,0.00,Wunderground v.1.15,2013-06-07 20:10:00,
2013-06-07 13:20:00,67.8,56.9,29.86,SSW,213,6.0,6.0,68,0.00,,,0.00,Wunderground v.1.15,2013-06-07 20:20:00,
2013-06-07 13:30:00,68.6,58.0,29.86,WSW,248,7.0,7.0,69,0.00,,,0.00,Wunderground v.1.15,2013-06-07 20:30:00,
2013-06-07 13:40:00,69.1,56.8,29.86,West,275,6.0,6.0,65,0.00,,,0.00,Wunderground v.1.15,2013-06-07 20:40:00,
2013-06-07 13:50:00,69.1,56.8,29.85,WSW,256,6.0,6.0,65,0.00,,,0.00,Wunderground v.1.15,2013-06-07 20:50:00,
2013-06-07 14:00:00,70.3,57.5,29.85,South,182,5.0,5.0,64,0.00,,,0.00,Wunderground v.1.15,2013-06-07 21:00:00,
2013-06-07 14:10:00,69.3,57.5,29.85,West,265,6.0,11.0,66,0.00,,,0.00,Wunderground v.1.15,2013-06-07 21:10:00,
2013-06-07 14:20:00,69.1,56.8,29.84,SSW,210,6.0,6.0,65,0.00,,,0.00,Wunderground v.1.15,2013-06-07 21:20:00,
2013-06-07 14:30:00,69.6,56.9,29.84,SSW,194,7.0,7.0,64,0.00,,,0.00,Wunderground v.1.15,2013-06-07 21:30:00,
2013-06-07 14:50:00,69.8,57.5,29.83,WSW,242,6.0,13.0,65,0.00,,,0.00,Wunderground v.1.15,2013-06-07 21:50:00,
2013-06-07 15:00:00,69.6,56.9,29.83,SSW,196,6.0,6.0,64,0.00,,,0.00,Wunderground v.1.15,2013-06-07 22:00:00,
2013-06-07 15:10:00,69.4,57.1,29.83,WSW,250,6.0,6.0,65,0.00,,,0.00,Wunderground v.1.15,2013-06-07 22:10:00,
2013-06-07 15:20:00,69.4,57.1,29.83,SSW,206,7.0,13.0,65,0.00,,,0.00,Wunderground v.1.15,2013-06-07 22:20:00,
2013-06-07 15:30:00,69.3,57.0,29.82,SSW,211,7.0,15.0,65,0.00,,,0.00,Wunderground v.1.15,2013-06-07 22:30:00,
2013-06-07 15:42:00,69.1,57.3,29.82,SW,236,8.0,16.0,66,0.00,,,0.00,Wunderground v.1.15,2013-06-07 22:42:00,
2013-06-07 15:50:00,68.8,57.4,29.82,West,269,7.0,7.0,67,0.00,,,0.00,Wunderground v.1.15,2013-06-07 22:50:00,
2013-06-07 16:00:00,69.1,57.3,29.81,West,275,5.0,5.0,66,0.00,,,0.00,Wunderground v.1.15,2013-06-07 23:00:00,
2013-06-07 16:10:00,69.4,57.1,29.81,SSW,209,7.0,10.0,65,0.00,,,0.00,Wunderground v.1.15,2013-06-07 23:10:00,
2013-06-07 16:20:00,68.6,57.2,29.81,WSW,239,8.0,14.0,67,0.00,,,0.00,Wunderground v.1.15,2013-06-07 23:20:00,
2013-06-07 16:30:00,68.4,57.0,29.80,WSW,246,7.0,7.0,67,0.00,,,0.00,Wunderground v.1.15,2013-06-07 23:30:00,
2013-06-07 16:41:00,68.3,57.3,29.80,SW,225,6.0,15.0,68,0.00,,,0.00,Wunderground v.1.15,2013-06-07 23:41:00,
2013-06-07 16:50:00,68.1,57.1,29.80,WSW,241,6.0,12.0,68,0.00,,,0.00,Wunderground v.1.15,2013-06-07 23:50:00,
2013-06-07 17:00:00,67.6,57.1,29.80,West,275,6.0,6.0,69,0.00,,,0.00,Wunderground v.1.15,2013-06-08 00:00:00,
2013-06-07 17:10:00,67.6,57.1,29.80,West,261,5.0,5.0,69,0.00,,,0.00,Wunderground v.1.15,2013-06-08 00:10:00,
2013-06-07 17:20:00,67.1,57.0,29.80,SW,225,6.0,12.0,70,0.00,,,0.00,Wunderground v.1.15,2013-06-08 00:20:00,
2013-06-07 17:30:00,65.8,56.9,29.80,SW,225,7.0,12.0,73,0.00,,,0.00,Wunderground v.1.15,2013-06-08 00:30:00,
2013-06-07 17:40:00,65.0,56.9,29.80,West,272,6.0,12.0,75,0.00,,,0.00,Wunderground v.1.15,2013-06-08 00:40:00,
2013-06-07 17:50:00,64.8,56.7,29.80,SSW,211,4.0,11.0,75,0.00,,,0.00,Wunderground v.1.15,2013-06-08 00:50:00,
2013-06-07 18:00:00,64.8,56.7,29.80,WSW,258,5.0,5.0,75,0.00,,,0.00,Wunderground v.1.15,2013-06-08 01:00:00,
2013-06-07 18:10:00,64.3,56.6,29.80,WNW,292,4.0,9.0,76,0.00,,,0.00,Wunderground v.1.15,2013-06-08 01:10:00,
2013-06-07 18:20:00,64.2,56.5,29.79,SW,235,4.0,4.0,76,0.00,,,0.00,Wunderground v.1.15,2013-06-08 01:20:00,
2013-06-07 18:30:00,63.9,56.5,29.80,WSW,254,4.0,4.0,77,0.00,,,0.00,Wunderground v.1.15,2013-06-08 01:30:00,
2013-06-07 18:40:00,63.7,56.7,29.80,West,259,3.0,12.0,78,0.00,,,0.00,Wunderground v.1.15,2013-06-08 01:40:00,
2013-06-07 19:00:00,63.4,56.4,29.80,WSW,255,2.0,7.0,78,0.00,,,0.00,Wunderground v.1.15,2013-06-08 02:00:00,
2013-06-07 19:10:00,63.4,56.8,29.80,SW,234,3.0,6.0,79,0.00,,,0.00,Wunderground v.1.15,2013-06-08 02:10:00,
2013-06-07 19:20:00,63.2,56.6,29.80,WSW,240,3.0,3.0,79,0.00,,,0.00,Wunderground v.1.15,2013-06-08 02:20:00,
2013-06-07 19:30:00,63.1,56.5,29.80,SW,228,3.0,7.0,79,0.00,,,0.00,Wunderground v.1.15,2013-06-08 02:30:00,
2013-06-07 19:40:00,62.7,56.4,29.80,SW,229,4.0,4.0,80,0.00,,,0.00,Wunderground v.1.15,2013-06-08 02:40:00,
2013-06-07 19:50:00,62.6,56.3,29.81,WSW,254,2.0,7.0,80,0.00,,,0.00,Wunderground v.1.15,2013-06-08 02:50:00,
2013-06-07 20:00:00,62.6,56.3,29.82,WSW,258,3.0,3.0,80,0.00,,,0.00,Wunderground v.1.15,2013-06-08 03:00:00,
2013-06-07 20:20:00,62.0,56.4,29.82,West,267,3.0,3.0,82,0.00,,,0.00,Wunderground v.1.15,2013-06-08 03:20:00,
2013-06-07 20:40:00,61.3,56.1,29.82,WSW,242,2.0,9.0,83,0.00,,,0.00,Wunderground v.1.15,2013-06-08 03:40:00,
2013-06-07 20:50:00,61.0,55.8,29.82,WSW,244,3.0,6.0,83,0.00,,,0.00,Wunderground v.1.15,2013-06-08 03:50:00,
2013-06-07 21:00:00,61.0,55.8,29.83,WSW,244,2.0,6.0,83,0.00,,,0.00,Wunderground v.1.15,2013-06-08 04:00:00,
2013-06-07 21:10:00,60.9,56.0,29.83,WSW,246,2.0,5.0,84,0.00,,,0.00,Wunderground v.1.15,2013-06-08 04:10:00,
2013-06-07 21:20:00,60.7,55.8,29.83,WSW,246,3.0,5.0,84,0.00,,,0.00,Wunderground v.1.15,2013-06-08 04:20:00,
2013-06-07 21:30:00,60.7,55.8,29.83,WNW,284,3.0,6.0,84,0.00,,,0.00,Wunderground v.1.15,2013-06-08 04:30:00,
2013-06-07 21:40:00,60.5,55.6,29.83,West,272,2.0,2.0,84,0.00,,,0.00,Wunderground v.1.15,2013-06-08 04:40:00,
2013-06-07 21:50:00,60.5,55.6,29.84,West,273,1.0,1.0,84,0.00,,,0.00,Wunderground v.1.15,2013-06-08 04:50:00,
2013-06-07 22:00:00,60.5,55.6,29.85,West,272,2.0,2.0,84,0.00,,,0.00,Wunderground v.1.15,2013-06-08 05:00:00,
2013-06-07 22:10:00,60.5,55.6,29.85,West,273,2.0,2.0,84,0.00,,,0.00,Wunderground v.1.15,2013-06-08 05:10:00,
2013-06-07 22:20:00,60.4,55.5,29.84,West,273,2.0,2.0,84,0.00,,,0.00,Wunderground v.1.15,2013-06-08 05:20:00,
2013-06-07 22:30:00,60.4,55.9,29.84,WSW,239,1.0,5.0,85,0.00,,,0.00,Wunderground v.1.15,2013-06-08 05:30:00,
2013-06-07 22:40:00,60.2,55.7,29.84,WSW,240,1.0,5.0,85,0.00,,,0.00,Wunderground v.1.15,2013-06-08 05:40:00,
2013-06-07 22:50:00,60.2,55.7,29.85,WSW,239,1.0,1.0,85,0.00,,,0.00,Wunderground v.1.15,2013-06-08 05:50:00,
2013-06-07 23:00:00,60.2,56.0,29.84,WSW,239,2.0,3.0,86,0.00,,,0.00,Wunderground v.1.15,2013-06-08 06:00:00,
2013-06-07 23:10:00,60.1,55.9,29.84,WSW,239,2.0,2.0,86,0.00,,,0.00,Wunderground v.1.15,2013-06-08 06:10:00,
2013-06-07 23:20:00,60.1,55.9,29.84,WSW,240,1.0,5.0,86,0.00,,,0.00,Wunderground v.1.15,2013-06-08 06:20:00,
2013-06-07 23:30:00,60.1,55.6,29.84,WSW,239,2.0,2.0,85,0.00,,,0.00,Wunderground v.1.15,2013-06-08 06:30:00,
2013-06-07 23:40:00,60.2,55.7,29.84,WSW,240,2.0,2.0,85,0.00,,,0.00,Wunderground v.1.15,2013-06-08 06:40:00,
2013-06-07 23:50:00,60.1,55.6,29.84,WSW,240,1.0,1.0,85,0.00,,,0.00,Wunderground v.1.15,2013-06-08 06:50:00,